CDT,Max TemperatureF,Mean TemperatureF,Min TemperatureF,Max Dew PointF,MeanDew PointF,Min DewpointF,Max Humidity, Mean Humidity, Min Humidity, Max Sea Level PressureIn, Mean Sea Level PressureIn, Min Sea Level PressureIn, Max VisibilityMiles, Mean VisibilityMiles, Min VisibilityMiles, Max Wind SpeedMPH, Mean Wind SpeedMPH, Max Gust SpeedMPH,PrecipitationIn, CloudCover, Events, WindDirDegrees
2012-9-1,91,84,77,81,79,75,100,92,70,30.13,30.09,30.06,10.0,9.9,7.0,15,4,20,0.00,3,Rain-Thunderstorm,146
2012-9-2,91,84,78,81,79,77,100,88,63,30.10,30.03,29.98,10.0,9.4,5.0,10,4,16,0.00,1,Thunderstorm,201
2012-9-3,91,84,77,79,78,75,100,83,59,30.05,29.99,29.94,10.0,10.0,10.0,12,5,17,0.00,1,,215
2012-9-4,93,84,75,79,77,75,100,83,56,29.99,29.95,29.90,10.0,10.0,10.0,13,5,16,0.00,2,,232
2012-9-5,95,86,77,81,78,73,100,83,52,29.94,29.89,29.85,10.0,9.9,7.0,15,6,18,0.00,2,,254
2012-9-6,95,86,77,81,77,73,100,80,49,29.96,29.90,29.85,10.0,9.3,2.0,13,4,16,0.00,1,,290
2012-9-7,95,86,77,80,77,70,100,82,50,29.93,29.88,29.81,10.0,10.0,10.0,9,1,,0.00,2,Thunderstorm,251
2012-9-8,94,84,74,82,76,70,100,83,59,29.99,29.88,29.83,10.0,9.2,4.0,17,4,22,0.00,3,Thunderstorm,336
2012-9-9,85,74,64,70,62,57,93,68,41,30.07,30.02,29.97,10.0,10.0,10.0,12,6,16,0.00,0,,10
2012-9-10,86,74,61,67,63,58,100,75,38,30.12,30.07,30.04,10.0,10.0,10.0,9,2,,0.00,0,,55
2012-9-11,89,75,61,72,67,62,100,77,45,30.13,30.08,30.04,10.0,10.0,10.0,13,3,16,0.00,1,Thunderstorm,91
2012-9-12,90,80,71,76,73,69,100,88,56,30.12,30.08,30.03,10.0,9.7,0.8,30,4,40,0.19,3,Rain-Thunderstorm,106
2012-9-13,89,80,70,78,74,70,100,87,53,30.13,30.10,30.04,10.0,9.5,2.0,16,2,25,0.22,2,Rain-Thunderstorm,107
2012-9-14,90,80,71,78,72,68,100,83,48,30.15,30.11,30.06,10.0,8.6,0.2,8,2,,0.11,1,Fog,59
2012-9-15,89,79,69,74,71,65,100,80,45,30.13,30.08,30.03,10.0,9.6,4.0,8,1,,0.05,0,,49
2012-9-16,90,80,69,77,73,69,100,83,53,30.04,29.98,29.91,10.0,9.3,1.8,9,1,,0.02,1,,136
2012-9-17,83,78,72,77,74,71,100,93,71,29.92,29.80,29.71,10.0,8.7,2.5,12,2,20,0.14,5,Rain-Thunderstorm,327
2012-9-18,86,78,71,73,71,67,100,83,54,30.02,29.90,29.80,10.0,10.0,10.0,12,6,18,0.05,4,,324
2012-9-19,81,71,61,71,61,55,98,72,41,30.11,30.06,30.03,10.0,10.0,10.0,10,5,,0.02,0,,19
2012-9-20,84,72,59,70,63,58,100,79,50,30.10,30.04,29.99,10.0,9.9,7.0,7,1,,0.01,1,,56
2012-9-21,89,77,65,75,70,65,100,83,49,30.04,30.00,29.95,10.0,9.2,4.0,10,1,,0.00,1,,92
2012-9-22,90,78,67,79,71,67,100,83,48,30.10,30.05,30.00,10.0,6.7,0.2,6,1,,0.00,3,Fog,59
2012-9-23,91,80,68,78,72,68,100,81,49,30.17,30.13,30.09,10.0,6.9,0.2,6,1,,0.00,2,Fog,46
2012-9-24,93,81,69,77,72,65,100,80,40,30.17,30.12,30.05,10.0,7.2,0.2,6,1,,0.00,1,Fog,156
2012-9-25,89,79,69,78,73,69,100,82,54,30.11,30.07,30.02,10.0,7.5,0.2,10,2,,0.00,2,Fog-Thunderstorm,150
2012-9-26,89,78,68,74,71,66,100,80,47,30.10,30.05,30.02,10.0,10.0,7.0,9,4,,0.00,1,,126
2012-9-27,89,78,68,76,72,68,100,86,54,30.13,30.07,30.01,10.0,8.8,0.2,10,3,21,0.00,2,Fog,72
2012-9-28,89,82,74,78,76,74,100,90,63,30.06,30.01,29.95,10.0,9.7,7.0,12,4,,0.01,3,Rain-Thunderstorm,136
2012-9-29,79,76,73,79,76,73,100,98,91,29.97,29.90,29.82,10.0,9.3,1.5,15,2,24,0.09,6,Rain-Thunderstorm,102
2012-9-30,84,75,65,81,75,65,100,92,69,29.81,29.64,29.54,10.0,9.2,3.0,21,7,32,0.05,7,Rain-Thunderstorm,207